Weather History for KCDA - April, 2013

Change the Weather History Date:

Friday, April 19, 2013

  Actual Average (K1V4) Record (K1V4)
Temperature  
Mean Temperature 61 °F 46 °F  
Max Temperature 71 °F 58 °F 90 °F (1976)
Min Temperature 51 °F 34 °F 18 °F (1926)
Degree Days  
Heating Degree Days 4 19  
Month to date heating degree days 437  
Since 1 July heating degree days 7237  
Cooling Degree Days 0 0  
Month to date cooling degree days 0  
Year to date cooling degree days 0  
Growing Degree Days 11 (Base 50)    
Moisture  
Dew Point 48 °F    
Average Humidity 62    
Maximum Humidity 86    
Minimum Humidity 42    
Precipitation  
Precipitation 0.00 in 0.09 in 1.26 in (1969)
Month to date precipitation 1.77  
Year to date precipitation 8.96  
Sea Level Pressure  
Sea Level Pressure 29.77 in    
Wind  
Wind Speed 12 mph (South)    
Max Wind Speed 24 mph    
Max Gust Speed 36 mph    
Visibility 10 miles    
Events Rain    
T = Trace of Precipitation, MM = Missing Value Source: NWS Daily Summary

Daily Weather History Graph

Daily Weather History Graph

Search for Another Location

Airport or City:

Trip Planner

Search our weather history database for the weather conditions in past years. The results will help you decide how hot, cold, wet, or windy it might be!

Date:

Astronomy

Apr. 19, 2013 Rise Set
Actual Time 5:56 AM EDT 7:38 PM EDT
Civil Twilight 5:26 AM EDT 8:09 PM EDT
Nautical Twilight 4:48 AM EDT 8:46 PM EDT
Astronomical Twilight 4:08 AM EDT 9:27 PM EDT
Moon 1:05 PM EDT (4/19) 2:25 AM EDT (4/19)
Length of Visible Light 14h 42m
Length of Day
13h 41m
First Quarter, 61% of the Moon is Illuminated
Apr 19
First Quarter
Apr 25
Full
May 2
Last Quarter
May 9
New
May 18
First Quarter

Hourly Weather History & Observations

Time (EDT) Temp. Dew Point Humidity Pressure Visibility Wind Dir Wind Speed Gust Speed Precip Events Conditions
12:15 AM 51.8 °F 30.2 °F 44% 29.99 in 10.0 mi SSE 9.2 mph 17.3 mph N/A   Overcast
12:35 AM 51.4 °F 31.1 °F 46% 29.98 in 10.0 mi SSE 10.4 mph 17.3 mph N/A   Overcast
12:55 AM 51.8 °F 32.0 °F 47% 29.98 in 10.0 mi SSE 11.5 mph 20.7 mph N/A   Overcast
1:15 AM 52.3 °F 33.8 °F 49% 29.98 in 10.0 mi South 11.5 mph 20.7 mph N/A   Overcast
1:35 AM 52.7 °F 35.8 °F 53% 29.97 in 10.0 mi SSE 8.1 mph 17.3 mph N/A   Overcast
1:55 AM 52.7 °F 37.4 °F 56% 29.96 in 10.0 mi SSE 9.2 mph - N/A   Overcast
2:15 AM 52.7 °F 39.6 °F 61% 29.96 in 10.0 mi SSE 5.8 mph - N/A   Overcast
2:55 AM 52.5 °F 40.8 °F 64% 29.94 in 10.0 mi South 11.5 mph 21.9 mph N/A   Overcast
3:15 AM 51.8 °F 40.5 °F 65% 29.94 in 10.0 mi SE 6.9 mph - N/A   Overcast
3:35 AM 51.8 °F 41.4 °F 68% 29.93 in 10.0 mi SSE 10.4 mph 17.3 mph N/A   Overcast
3:55 AM 52.0 °F 42.8 °F 71% 29.93 in 10.0 mi SE 8.1 mph - N/A   Overcast
4:15 AM 52.0 °F 43.0 °F 71% 29.92 in 10.0 mi SSE 10.4 mph 16.1 mph N/A   Overcast
4:35 AM 52.3 °F 44.1 °F 73% 29.91 in 10.0 mi SSE 9.2 mph - N/A   Overcast
4:55 AM 52.7 °F 44.6 °F 74% 29.91 in 10.0 mi SSE 10.4 mph - N/A   Overcast
5:15 AM 52.7 °F 44.8 °F 74% 29.91 in 10.0 mi SSE 8.1 mph - N/A   Overcast
5:35 AM 52.7 °F 44.8 °F 74% 29.91 in 10.0 mi SSE 8.1 mph - N/A   Overcast
5:55 AM 53.1 °F 45.5 °F 75% 29.91 in 10.0 mi SSE 9.2 mph 18.4 mph N/A   Overcast
6:15 AM 53.1 °F 45.7 °F 76% 29.91 in 10.0 mi South 9.2 mph - N/A   Overcast
6:35 AM 53.6 °F 46.4 °F 77% 29.90 in 10.0 mi SSE 12.7 mph 19.6 mph N/A   Overcast
6:55 AM 53.8 °F 46.6 °F 77% 29.91 in 10.0 mi South 10.4 mph 18.4 mph N/A   Overcast
7:15 AM 54.5 °F 47.3 °F 77% 29.90 in 10.0 mi SSE 11.5 mph - N/A   Overcast
7:35 AM 54.5 °F 47.3 °F 77% 29.90 in 10.0 mi SSE 9.2 mph - N/A   Overcast
7:55 AM 55.0 °F 47.3 °F 75% 29.90 in 10.0 mi South 11.5 mph 16.1 mph N/A   Overcast
8:15 AM 55.4 °F 47.3 °F 74% 29.89 in 10.0 mi South 9.2 mph 17.3 mph N/A   Overcast
8:35 AM 56.1 °F 47.8 °F 74% 29.88 in 10.0 mi South 11.5 mph 16.1 mph N/A   Overcast
8:55 AM 56.7 °F 47.8 °F 72% 29.88 in 10.0 mi South 10.4 mph 23.0 mph N/A   Overcast
9:15 AM 57.2 °F 48.4 °F 72% 29.87 in 10.0 mi South 11.5 mph 20.7 mph N/A   Overcast
9:35 AM 57.7 °F 48.4 °F 71% 29.86 in 10.0 mi SSE 8.1 mph - N/A   Overcast
9:55 AM 58.8 °F 48.7 °F 69% 29.85 in 10.0 mi South 8.1 mph - N/A   Overcast
10:15 AM 60.1 °F 49.3 °F 67% 29.84 in 10.0 mi South 19.6 mph 26.5 mph N/A   Overcast
10:35 AM 61.7 °F 49.8 °F 65% 29.83 in 10.0 mi South 16.1 mph 24.2 mph N/A   Overcast
10:55 AM 61.2 °F 50.0 °F 67% 29.83 in 10.0 mi South 13.8 mph 23.0 mph N/A   Overcast
11:35 AM 66.2 °F 50.2 °F 56% 29.81 in 10.0 mi South 13.8 mph 27.6 mph N/A   Mostly Cloudy
11:55 AM 66.9 °F 49.5 °F 53% 29.79 in 10.0 mi South 16.1 mph 28.8 mph N/A   Overcast
12:15 PM 66.7 °F 49.1 °F 53% 29.78 in 10.0 mi SSE 17.3 mph 25.3 mph N/A   Mostly Cloudy
12:35 PM 69.1 °F 48.2 °F 47% 29.77 in 10.0 mi South 19.6 mph 28.8 mph N/A   Mostly Cloudy
12:55 PM 68.9 °F 47.7 °F 47% 29.75 in 10.0 mi South 19.6 mph 35.7 mph N/A   Scattered Clouds
1:15 PM 68.5 °F 47.3 °F 47% 29.74 in 10.0 mi South 17.3 mph 35.7 mph N/A   Scattered Clouds
1:35 PM 70.3 °F 47.3 °F 44% 29.73 in 10.0 mi South 16.1 mph 25.3 mph N/A   Scattered Clouds
1:55 PM 70.5 °F 47.5 °F 44% 29.72 in 10.0 mi SSE 15.0 mph 26.5 mph N/A   Scattered Clouds
2:15 PM 71.4 °F 47.5 °F 42% 29.71 in 10.0 mi South 16.1 mph 25.3 mph N/A   Scattered Clouds
2:35 PM 71.2 °F 48.2 °F 44% 29.70 in 10.0 mi South 15.0 mph 26.5 mph N/A   Mostly Cloudy
2:55 PM 70.5 °F 48.6 °F 46% 29.69 in 10.0 mi South 15.0 mph 27.6 mph N/A   Overcast
3:15 PM 71.1 °F 49.5 °F 46% 29.69 in 10.0 mi South 17.3 mph 32.2 mph N/A   Overcast
3:35 PM 70.7 °F 50.0 °F 48% 29.69 in 10.0 mi South 16.1 mph 25.3 mph N/A   Overcast
3:55 PM 70.3 °F 50.9 °F 50% 29.68 in 10.0 mi South 13.8 mph 25.3 mph N/A   Overcast
4:15 PM 68.9 °F 50.4 °F 52% 29.67 in 10.0 mi South 10.4 mph 20.7 mph N/A   Overcast
4:35 PM 69.1 °F 50.5 °F 52% 29.65 in 10.0 mi SSE 16.1 mph 29.9 mph N/A   Mostly Cloudy
4:55 PM 68.5 °F 51.1 °F 54% 29.65 in 10.0 mi South 17.3 mph 21.9 mph N/A   Scattered Clouds
5:15 PM 68.5 °F 51.8 °F 55% 29.62 in 10.0 mi South 17.3 mph 28.8 mph N/A   Clear
5:35 PM 68.9 °F 51.8 °F 54% 29.61 in 10.0 mi South 24.2 mph 31.1 mph N/A   Scattered Clouds
5:55 PM 68.5 °F 51.8 °F 55% 29.56 in 10.0 mi South 19.6 mph 31.1 mph N/A   Scattered Clouds
6:15 PM 68.9 °F 51.6 °F 54% 29.57 in 10.0 mi South 16.1 mph 26.5 mph N/A   Clear
6:35 PM 68.5 °F 51.8 °F 55% 29.57 in 10.0 mi South 12.7 mph 18.4 mph N/A   Mostly Cloudy
6:55 PM 68.5 °F 52.3 °F 56% 29.59 in 10.0 mi South 16.1 mph 33.4 mph N/A   Mostly Cloudy
7:15 PM 68.5 °F 53.1 °F 58% 29.59 in 10.0 mi South 10.4 mph 25.3 mph N/A   Overcast
7:35 PM 68.4 °F 53.6 °F 59% 29.58 in 10.0 mi South 15.0 mph 24.2 mph N/A   Mostly Cloudy
7:55 PM 67.6 °F 53.6 °F 61% 29.58 in 10.0 mi South 13.8 mph 23.0 mph N/A   Scattered Clouds
8:15 PM 67.6 °F 54.0 °F 61% 29.57 in 10.0 mi South 20.7 mph 25.3 mph N/A   Overcast
8:35 PM 67.3 °F 54.5 °F 63% 29.57 in 10.0 mi South 20.7 mph 27.6 mph N/A   Mostly Cloudy
8:55 PM 67.1 °F 54.5 °F 64% 29.56 in 10.0 mi South 18.4 mph 27.6 mph N/A   Mostly Cloudy
9:15 PM 66.6 °F 55.4 °F 67% 29.56 in 10.0 mi South 16.1 mph 21.9 mph N/A Rain Light Rain
9:35 PM 66.4 °F 55.2 °F 67% 29.55 in 10.0 mi South 12.7 mph - N/A   Overcast
9:55 PM 65.3 °F 55.6 °F 71% 29.54 in 10.0 mi South 19.6 mph 27.6 mph N/A Rain Rain
10:15 PM 63.5 °F 56.5 °F 78% 29.52 in 10.0 mi South 17.3 mph 24.2 mph N/A Rain Light Rain
10:35 PM 63.1 °F 57.7 °F 83% 29.53 in 7.0 mi South 10.4 mph 16.1 mph N/A Rain Heavy Rain
10:55 PM 62.1 °F 57.7 °F 86% 29.54 in 10.0 mi WSW 10.4 mph 17.3 mph N/A Rain Light Rain